AirNav   Air Wisconsin pilot careers
 
 1375 users online  

PAGQ Big Lake Airport
Big Lake, Alaska, USA

GOING TO BIG LAKE?


FAA INFORMATION EFFECTIVE 20 JUNE 2019

Location

FAA Identifier: BGQ
Lat/Long: 61-32-04.8600N / 149-48-45.1600W
61-32.081000N / 149-48.752667W
61.5346833 / -149.8125444
(estimated)
Elevation: 157.5 ft. / 48 m (estimated)
Variation: 19E (2010)
From city: 1 mile SE of BIG LAKE, AK
Time zone: UTC -8 (UTC -9 during Standard Time)
Zip code: 99652

Airport Operations

Airport use: Open to the public
Activation date: 05/1951
Control tower: no
ARTCC: ANCHORAGE CENTER
FSS: KENAI FLIGHT SERVICE STATION [907-283-8469]
NOTAMs facility: ENA (NOTAM-D service available)
Attendance: UNATNDD
Wind indicator: lighted
Segmented circle: yes
Lights: ACTVT MIRL RY 07/25 - 122.8
Beacon: white-green (lighted land airport)
Operates sunset to sunrise.

Airport Communications

CTAF: 122.8
ANCHORAGE APPROACH: 118.6
ANCHORAGE DEPARTURE: 118.6
CLASS C: 118.6
WX AWOS-3P at IYS (8 nm E): 135.25 (907-373-3801)
WX AWOS-3P at BCV (11 nm SE): 135.55 (907-688-0826)
WX AWOS-3 at FRN (17 nm S): 134.25 or 118.525 (907-384-0132)
WX ASOS at MRI (19 nm S): 124.25 (907-271-5277)

Nearby radio navigation aids

VOR radial/distance  VOR name  Freq  Var
BGQr096/4.9BIG LAKE VORTAC112.5019E
TEDr353/22.4ANCHORAGE VOR/DME113.1518E

 
NDB name  Hdg/Dist  Freq  Var  ID
CAMPBELL LAKE001/22.833816ECMQ -.-. -- --.-

Airport Services

Parking: tiedowns
Airframe service: MAJOR
Powerplant service: MAJOR

Runway Information

Runway 7/25

Dimensions: 2450 x 70 ft. / 747 x 21 m
Surface: gravel, in good condition
Runway edge lights: medium intensity
RUNWAY 7  RUNWAY 25
Latitude: 61-32.081000N61-32.081000N
Longitude: 149-49.173833W149-48.331500W
Elevation: 154.9 ft.150.9 ft.
Traffic pattern: leftleft
Runway heading: 071 magnetic, 090 true251 magnetic, 270 true
Markings: NSTD, in good conditionNSTD, in good condition
Runway end identifier lights: nono
Touchdown point: yes, no lightsyes, no lights
Obstructions: 8 ft. brush, 108 ft. left and right of centerline42 ft. trees, 207 ft. left of centerline

Airport Ownership and Management from official FAA records

Ownership: Publicly-owned
Owner: ALASKA DOT&PF CENTRAL REGION
PO BOX 196900
ANCHORAGE, AK 99519-6900
Phone 907-269-0770
Manager: KYLER HYLTON
289 INNER SPRING LOOP, DOT&PF CENTRAL REGION
PALMER, AK 99645
Phone 907-745-2159

Airport Operational Statistics

Aircraft based on the field: 66
Single engine airplanes: 62
Multi engine airplanes: 1
Ultralights: 3
    
Aircraft operations: avg 26/day *
84% transient general aviation
16% local general aviation
* for 12-month period ending 31 December 2015

Additional Remarks

LOW FLYING ACFT INVOF APCH TO BIG LAKE VOR.
ARPT HAS DESIGNATED TRANSIENT ACFT PARKING AVBL. TRANSIENT ACFT PARKING IS DESIGNATED WITH GREEN CONES.
BE ALERT: FROST HEAVE ON RY APRXLY 2200 FT.
RY COND NOT MONITORED; RECOMMEND VISUAL INSPECTION PRIOR TO USE.
UPDRAFT OFF OF RISING HILL ON APCH TO RY 25.
RY 07+15' ROAD PARALLEL TO RY END.
190 FT AGL LIGHTED TWR 2 NM NE OF ARPT.
BE ALERT: OCCASIONAL ULTRA LIGHT TRAFFIC.

Instrument Procedures

NOTE: All procedures below are presented as PDF files. If you need a reader for these files, you should download the free Adobe Reader.

NOT FOR NAVIGATION. Please procure official charts for flight.
FAA instrument procedures published for use from 20 June 2019 at 0901Z to 19 July 2019 at 0900Z.

 
IAPs - Instrument Approach Procedures
RNAV (GPS) RWY 07   download (208KB)
RNAV (GPS) RWY 25   download (193KB)
VOR RWY 07   download (178KB)
NOTE: Special Take-Off Minimums/Departure Procedures apply   download (148KB)

Other nearby airports with instrument procedures:

PAWS - Wasilla Airport (8 nm E)
PAUO - Willow Airport (15 nm NW)
PAFR - Bryant Army Airfield Heliport (17 nm S)
PAED - Elmendorf Air Force Base (17 nm S)
PAMR - Merrill Field Airport (19 nm S)
 
Loc | Ops | Rwys | IFR | FBO | Links
Com | Nav | Svcs | Stats | Notes

Crowley
 
Area around PAGQ (Big Lake Airport)
 
Road maps at: MapQuest Bing Google
 
Aerial photo
WARNING: Photo may not be current or correct
Aerial photo of PAGQ (Big Lake Airport)
Do you have a better or more recent aerial photo of Big Lake Airport that you would like to share? If so, please send us your photo.

 
Sectional chart

 
Airport distance calculator
Flying to Big Lake Airport? Find the distance to fly.

From to PAGQ

Sunrise and sunset
Times for 24-Jun-2019
 Local
(UTC-8)
 Zulu
(UTC)
Morning civil twilight++
Sunrise04:1812:18
Sunset23:4607:46
Evening civil twilight++

Current date and time
Zulu (UTC)  24-Jun-2019 14:00:29
Local (UTC-8)  24-Jun-2019 06:00:29
 
METAR
PABV 
11nm SE 
241256Z AUTO 23004KT 10SM FEW040 15/13 A3004 RMK AO2 SLP176 T01500133
PAED 
17nm S 
241256Z AUTO 00000KT 10SM SCT100 14/12 A3002 RMK AO2 SLP161 T01420115 $
PAMR 
19nm S 
241353Z 00000KT 10SM CLR 14/10 A3003 RMK AO2 SLP167 T01440100
PAAQ 
21nm E 
241353Z AUTO 01003KT 10SM SCT048 BKN095 OVC120 14/12 A3002 RMK AO2 SLP168 T01390122 TSNO $
PALH 
22nm S 
241353Z 00000KT 10SM CLR 15/11 A3003 RMK AO2 SLP170 T01500111
TAF
PAED 
17nm S 
241100Z 2411/2517 26006KT 9999 SCT055 BKN070 BKN100 QNH2997INS BECMG 2420/2421 25012KT 9999 SCT030 QNH2992INS BECMG 2505/2506 VRB06KT 9999 SCT040 QNH2993INS TX24/2500Z TN15/2415Z
PAAQ 
21nm E 
241121Z 2412/2512 21006KT P6SM BKN080 FM242100 35006KT P6SM VCTS FEW050CB SCT120 FM250900 15002KT P6SM BKN100
NOTAMs
Click for the latest NOTAMs
NOTAMs are issued by the DoD/FAA and will open in a separate window not controlled by AirNav.

 

 
 

Would you like to see your business listed on this page?

 If your business provides an interesting product or service to pilots, flight crews, aircraft, or users of the Big Lake Airport, you should consider listing it here.  To start the listing process, click on the button below
 
Add a business
 

Other Pages about Big Lake Airport

Update a link
 
Copyright © AirNav, LLC. All rights reserved. Privacy Policy  Contact